,,Stat6,,Stat2,,Stat8,,Stat9,,Stat10,,Wind1,,Wind1,
time,status,PA1M_AVG,status,PR1M_SUM,status,RH1M_AVG,status,SR1M_AVG,status,TA1M_AVG,status,W1dAve1m,status,W1sAve1m,
2008-09-05, 00:00:00,VALID,918.471,VALID,0.2,VALID,100,VALID,-0.101885,VALID,18.9367,VALID,92,VALID,0,
2008-09-05, 00:01:00,VALID,918.472,VALID,0,VALID,100,VALID,-0.0849042,VALID,18.9367,VALID,92,VALID,0,
2008-09-05, 00:02:00,VALID,918.464,VALID,0.2,VALID,100,VALID,-0.101885,VALID,18.9332,VALID,92,VALID,0,
2008-09-05, 00:03:00,VALID,918.45,VALID,0,VALID,100,VALID,-0.101885,VALID,18.9397,VALID,92,VALID,0,
2008-09-05, 00:04:00,VALID,918.439,VALID,0.2,VALID,100,VALID,-0.118866,VALID,18.9527,VALID,92,VALID,0,
2008-09-05, 00:05:00,VALID,918.449,VALID,0.2,VALID,100,VALID,-0.118866,VALID,18.9626,VALID,92,VALID,0,
2008-09-05, 00:06:00,VALID,918.447,VALID,0.2,VALID,100,VALID,-0.0169808,VALID,18.9552,VALID,92,VALID,0,
2008-09-05, 00:07:00,VALID,918.453,VALID,0,VALID,100,VALID,0,VALID,18.9579,VALID,92,VALID,0,
2008-09-05, 00:08:00,VALID,918.452,VALID,0.2,VALID,100,VALID,0,VALID,18.9677,VALID,92,VALID,0,
2008-09-05, 00:09:00,VALID,918.448,VALID,0,VALID,100,VALID,0,VALID,18.9612,VALID,92,VALID,0,
2008-09-05, 00:10:00,VALID,918.443,VALID,0.2,VALID,100,VALID,0.0169808,VALID,18.9575,VALID,92,VALID,0,
2008-09-05, 00:11:00,VALID,918.437,VALID,0,VALID,100,VALID,-0.0169808,VALID,18.948,VALID,92,VALID,0,
2008-09-05, 00:12:00,VALID,918.428,VALID,0.2,VALID,100,VALID,0,VALID,18.925,VALID,92,VALID,0,
2008-09-05, 00:13:00,VALID,918.408,VALID,0.2,VALID,100,VALID,-0.0169808,VALID,18.9058,VALID,92,VALID,0,
2008-09-05, 00:14:00,VALID,918.395,VALID,0.2,VALID,100,VALID,0.0169808,VALID,18.9058,VALID,92,VALID,0,
2008-09-05, 00:15:00,VALID,918.38,VALID,0,VALID,100,VALID,0,VALID,18.9093,VALID,92,VALID,0,
2008-09-05, 00:16:00,VALID,918.377,VALID,0.2,VALID,100,VALID,0.0169808,VALID,18.8991,VALID,92,VALID,0,
2008-09-05, 00:17:00,VALID,918.359,VALID,0.2,VALID,100,VALID,-0.0169808,VALID,18.8993,VALID,92,VALID,0,
2008-09-05, 00:18:00,VALID,918.353,VALID,0.4,VALID,100,VALID,-0.0169808,VALID,18.8961,VALID,92,VALID,0,
2008-09-05, 00:19:00,VALID,918.336,VALID,0.2,VALID,100,VALID,0,VALID,18.8866,VALID,92,VALID,0,
2008-09-05, 00:20:00,VALID,918.333,VALID,0,VALID,100,VALID,-0.0339617,VALID,18.8803,VALID,92,VALID,0,
2008-09-05, 00:21:00,VALID,918.324,VALID,0.2,VALID,100,VALID,-0.0339617,VALID,18.8966,VALID,92,VALID,0,
2008-09-05, 00:22:00,VALID,918.307,VALID,0.2,VALID,100,VALID,-0.0339617,VALID,18.8901,VALID,92,VALID,0,
2008-09-05, 00:23:00,VALID,918.313,VALID,0.2,VALID,100,VALID,0,VALID,18.8773,VALID,92,VALID,0,
2008-09-05, 00:24:00,VALID,918.318,VALID,0.2,VALID,100,VALID,-0.0339617,VALID,18.8606,VALID,92,VALID,0,
2008-09-05, 00:25:00,VALID,918.331,VALID,0.2,VALID,100,VALID,0,VALID,18.8412,VALID,92,VALID,0,
2008-09-05, 00:26:00,VALID,918.331,VALID,0.2,VALID,100,VALID,0,VALID,18.825,VALID,92,VALID,0,
2008-09-05, 00:27:00,VALID,918.328,VALID,0.2,VALID,100,VALID,0,VALID,18.8023,VALID,92,VALID,0,
2008-09-05, 00:28:00,VALID,918.318,VALID,0.4,VALID,100,VALID,0,VALID,18.7849,VALID,92,VALID,0,
2008-09-05, 00:29:00,VALID,918.307,VALID,0.2,VALID,100,VALID,0,VALID,18.7888,VALID,92,VALID,0,
2008-09-05, 00:30:00,VALID,918.309,VALID,0.2,VALID,100,VALID,0,VALID,18.7826,VALID,92,VALID,0,
2008-09-05, 00:31:00,VALID,918.312,VALID,0,VALID,100,VALID,0,VALID,18.7798,VALID,92,VALID,0,
2008-09-05, 00:32:00,VALID,918.307,VALID,0.2,VALID,100,VALID,0,VALID,18.7631,VALID,92,VALID,0,
2008-09-05, 00:33:00,VALID,918.313,VALID,0,VALID,100,VALID,0,VALID,18.7636,VALID,92,VALID,0,
2008-09-05, 00:34:00,VALID,918.32,VALID,0.2,VALID,100,VALID,0,VALID,18.7474,VALID,92,VALID,0,
2008-09-05, 00:35:00,VALID,918.315,VALID,0,VALID,100,VALID,0.0169808,VALID,18.7406,VALID,92,VALID,0,
2008-09-05, 00:36:00,VALID,918.296,VALID,0.2,VALID,100,VALID,-0.0679233,VALID,18.7448,VALID,92,VALID,0,
2008-09-05, 00:37:00,VALID,918.284,VALID,0.2,VALID,100,VALID,-0.0849042,VALID,18.7356,VALID,92,VALID,0,
2008-09-05, 00:38:00,VALID,918.286,VALID,0,VALID,100,VALID,-0.101885,VALID,18.7291,VALID,92,VALID,0,
2008-09-05, 00:39:00,VALID,918.281,VALID,0.2,VALID,100,VALID,-0.0679233,VALID,18.7353,VALID,92,VALID,0,
2008-09-05, 00:40:00,VALID,918.272,VALID,0,VALID,100,VALID,-0.101885,VALID,18.7224,VALID,92,VALID,0,
2008-09-05, 00:41:00,VALID,918.273,VALID,0,VALID,100,VALID,-0.118866,VALID,18.7184,VALID,92,VALID,0,
2008-09-05, 00:42:00,VALID,918.263,VALID,0.2,VALID,100,VALID,-0.101885,VALID,18.7321,VALID,92,VALID,0,
2008-09-05, 00:43:00,VALID,918.256,VALID,0,VALID,100,VALID,-0.101885,VALID,18.7191,VALID,93,VALID,0,
2008-09-05, 00:44:00,VALID,918.247,VALID,0,VALID,100,VALID,-0.101885,VALID,18.7196,VALID,93,VALID,0,
2008-09-05, 00:45:00,VALID,918.233,VALID,0,VALID,100,VALID,-0.118866,VALID,18.7096,VALID,93,VALID,0,
2008-09-05, 00:46:00,VALID,918.217,VALID,0.2,VALID,100,VALID,-0.101885,VALID,18.7031,VALID,93,VALID,0,
2008-09-05, 00:47:00,VALID,918.214,VALID,0,VALID,100,VALID,-0.101885,VALID,18.7029,VALID,93,VALID,0,
2008-09-05, 00:48:00,VALID,918.197,VALID,0.2,VALID,100,VALID,-0.101885,VALID,18.6962,VALID,93,VALID,0.0401042,
2008-09-05, 00:49:00,VALID,918.18,VALID,0,VALID,100,VALID,-0.135847,VALID,18.7029,VALID,97,VALID,0,
2008-09-05, 00:50:00,VALID,918.182,VALID,0,VALID,100,VALID,-0.0849042,VALID,18.7031,VALID,109,VALID,0.292878,
2008-09-05, 00:51:00,VALID,918.165,VALID,0.2,VALID,100,VALID,-0.0509425,VALID,18.6994,VALID,109,VALID,0.0872093,
2008-09-05, 00:52:00,VALID,918.148,VALID,0,VALID,100,VALID,-0.0679233,VALID,18.6957,VALID,110,VALID,0.514323,
2008-09-05, 00:53:00,VALID,918.14,VALID,0.2,VALID,100,VALID,-0.0339617,VALID,18.6857,VALID,110,VALID,0.451953,
2008-09-05, 00:54:00,VALID,918.125,VALID,0,VALID,100,VALID,-0.0169808,VALID,18.6855,VALID,116,VALID,0.430596,
2008-09-05, 00:55:00,VALID,918.118,VALID,0,VALID,100,VALID,-0.0169808,VALID,18.6992,VALID,117,VALID,0,
2008-09-05, 00:56:00,VALID,918.105,VALID,0.2,VALID,100,VALID,0,VALID,18.7091,VALID,117,VALID,0,
2008-09-05, 00:57:00,VALID,918.103,VALID,0,VALID,100,VALID,-0.0509425,VALID,18.7117,VALID,117,VALID,0,
2008-09-05, 00:58:00,VALID,918.086,VALID,0.2,VALID,100,VALID,-0.0509425,VALID,18.7087,VALID,117,VALID,0,
2008-09-05, 00:59:00,VALID,918.086,VALID,0,VALID,100,VALID,-0.0509425,VALID,18.7087,VALID,117,VALID,0,
2008-09-05, 01:00:00,VALID,918.084,VALID,0.2,VALID,100,VALID,-0.0509425,VALID,18.7054,VALID,117,VALID,0,
2008-09-05, 01:01:00,VALID,918.097,VALID,0,VALID,100,VALID,-0.0509425,VALID,18.7152,VALID,117,VALID,0,
2008-09-05, 01:02:00,VALID,918.096,VALID,0,VALID,100,VALID,0,VALID,18.7184,VALID,117,VALID,0,
2008-09-05, 01:03:00,VALID,918.084,VALID,0.2,VALID,100,VALID,-0.0339617,VALID,18.7247,VALID,117,VALID,0,
2008-09-05, 01:04:00,VALID,918.08,VALID,0,VALID,100,VALID,0,VALID,18.7281,VALID,117,VALID,0,
2008-09-05, 01:05:00,VALID,918.064,VALID,0,VALID,100,VALID,-0.0679233,VALID,18.7476,VALID,117,VALID,0,
2008-09-05, 01:06:00,VALID,918.061,VALID,0.2,VALID,100,VALID,0.0339617,VALID,18.7399,VALID,117,VALID,0,
2008-09-05, 01:07:00,VALID,918.053,VALID,0,VALID,100,VALID,0.0679233,VALID,18.7429,VALID,117,VALID,0,
2008-09-05, 01:08:00,VALID,918.046,VALID,0.2,VALID,100,VALID,0.101885,VALID,18.7427,VALID,117,VALID,0,
2008-09-05, 01:09:00,VALID,918.046,VALID,0,VALID,100,VALID,0.101885,VALID,18.7427,VALID,117,VALID,0,
2008-09-05, 01:10:00,VALID,918.041,VALID,0,VALID,100,VALID,0.0849042,VALID,18.7427,VALID,117,VALID,0,
2008-09-05, 01:11:00,VALID,918.055,VALID,0.2,VALID,100,VALID,0.0849042,VALID,18.7492,VALID,117,VALID,0,
2008-09-05, 01:12:00,VALID,918.05,VALID,0.2,VALID,100,VALID,0.0679233,VALID,18.7622,VALID,117,VALID,0,
2008-09-05, 01:13:00,VALID,918.04,VALID,0,VALID,100,VALID,0.0679233,VALID,18.7622,VALID,117,VALID,0,
2008-09-05, 01:14:00,VALID,918.047,VALID,0.2,VALID,100,VALID,0.0169808,VALID,18.7524,VALID,117,VALID,0,
2008-09-05, 01:15:00,VALID,918.047,VALID,0.2,VALID,100,VALID,0.0679233,VALID,18.7429,VALID,117,VALID,0,
2008-09-05, 01:16:00,VALID,918.032,VALID,0,VALID,100,VALID,0,VALID,18.7429,VALID,117,VALID,0,
2008-09-05, 01:17:00,VALID,918.039,VALID,0.2,VALID,100,VALID,0.0849042,VALID,18.7427,VALID,117,VALID,0,
2008-09-05, 01:18:00,VALID,918.038,VALID,0.2,VALID,100,VALID,0.0169808,VALID,18.7626,VALID,117,VALID,0,
2008-09-05, 01:19:00,VALID,918.044,VALID,0,VALID,100,VALID,0.0679233,VALID,18.7719,VALID,117,VALID,0,
2008-09-05, 01:20:00,VALID,918.046,VALID,0.2,VALID,100,VALID,0.0339617,VALID,18.7756,VALID,117,VALID,0,
2008-09-05, 01:21:00,VALID,918.041,VALID,0,VALID,100,VALID,0.0169808,VALID,18.7663,VALID,117,VALID,0,
2008-09-05, 01:22:00,VALID,918.033,VALID,0.2,VALID,100,VALID,-0.0339617,VALID,18.7798,VALID,117,VALID,0,
2008-09-05, 01:23:00,VALID,918.02,VALID,0,VALID,100,VALID,-0.0509425,VALID,18.7932,VALID,117,VALID,0,
2008-09-05, 01:24:00,VALID,918.015,VALID,0.2,VALID,100,VALID,-0.0849042,VALID,18.7928,VALID,117,VALID,0,
2008-09-05, 01:25:00,VALID,918.007,VALID,0,VALID,100,VALID,-0.0679233,VALID,18.7895,VALID,117,VALID,0,
2008-09-05, 01:26:00,VALID,918.008,VALID,0.2,VALID,100,VALID,-0.0169808,VALID,18.7993,VALID,117,VALID,0,
2008-09-05, 01:27:00,VALID,917.999,VALID,0,VALID,100,VALID,-0.0509425,VALID,18.8092,VALID,117,VALID,0,
2008-09-05, 01:28:00,VALID,918.001,VALID,0.2,VALID,100,VALID,-0.0679233,VALID,18.8122,VALID,117,VALID,0,
2008-09-05, 01:29:00,VALID,918.003,VALID,0,VALID,100,VALID,-0.0509425,VALID,18.8187,VALID,117,VALID,0,
2008-09-05, 01:30:00,VALID,918.001,VALID,0.2,VALID,100,VALID,-0.0169808,VALID,18.822,VALID,117,VALID,0,
2008-09-05, 01:31:00,VALID,918.008,VALID,0,VALID,100,VALID,-0.0849042,VALID,18.8352,VALID,117,VALID,0,
2008-09-05, 01:32:00,VALID,917.998,VALID,0.2,VALID,100,VALID,-0.0509425,VALID,18.8384,VALID,117,VALID,0,
2008-09-05, 01:33:00,VALID,918.005,VALID,0.2,VALID,100,VALID,-0.0169808,VALID,18.8414,VALID,117,VALID,0,
2008-09-05, 01:34:00,VALID,918.004,VALID,0,VALID,100,VALID,-0.0169808,VALID,18.8417,VALID,117,VALID,0,
2008-09-05, 01:35:00,VALID,918,VALID,0.2,VALID,100,VALID,-0.0169808,VALID,18.8414,VALID,117,VALID,0,
2008-09-05, 01:36:00,VALID,917.99,VALID,0.2,VALID,100,VALID,-0.0339617,VALID,18.8454,VALID,117,VALID,0,
2008-09-05, 01:37:00,VALID,917.99,VALID,0,VALID,100,VALID,-0.0509425,VALID,18.8317,VALID,117,VALID,0,
2008-09-05, 01:38:00,VALID,917.995,VALID,0.2,VALID,100,VALID,-0.0339617,VALID,18.8157,VALID,117,VALID,0,
2008-09-05, 01:39:00,VALID,917.98,VALID,0.2,VALID,100,VALID,-0.0679233,VALID,18.7928,VALID,199,VALID,0.388719,
2008-09-05, 01:40:00,VALID,917.988,VALID,0.2,VALID,100,VALID,-0.0169808,VALID,18.7828,VALID,290,VALID,0.0599564,
2008-09-05, 01:41:00,VALID,917.986,VALID,0.2,VALID,100,VALID,0,VALID,18.7833,VALID,290,VALID,0,
2008-09-05, 01:42:00,VALID,917.973,VALID,0.2,VALID,100,VALID,0,VALID,18.7798,VALID,275,VALID,0.0440341,
2008-09-05, 01:43:00,VALID,917.944,VALID,0.4,VALID,100,VALID,-0.0509425,VALID,18.7666,VALID,271,VALID,0.685855,
2008-09-05, 01:44:00,VALID,917.928,VALID,0.4,VALID,100,VALID,-0.0509425,VALID,18.7703,VALID,291,VALID,0.367001,
2008-09-05, 01:45:00,VALID,917.925,VALID,0.4,VALID,100,VALID,-0.0339617,VALID,18.7833,VALID,283,VALID,0.210156,
2008-09-05, 01:46:00,VALID,917.916,VALID,0.2,VALID,100,VALID,-0.0169808,VALID,18.7668,VALID,286,VALID,0.250363,
2008-09-05, 01:47:00,VALID,917.901,VALID,0.4,VALID,100,VALID,0,VALID,18.7663,VALID,286,VALID,0,
2008-09-05, 01:48:00,VALID,917.892,VALID,0.2,VALID,100,VALID,-0.0509425,VALID,18.7636,VALID,324,VALID,0,
2008-09-05, 01:49:00,VALID,917.897,VALID,0.2,VALID,100,VALID,-0.0169808,VALID,18.7541,VALID,34,VALID,0,
2008-09-05, 01:50:00,VALID,917.899,VALID,0.2,VALID,100,VALID,0,VALID,18.7703,VALID,29,VALID,0,
2008-09-05, 01:51:00,VALID,917.901,VALID,0.2,VALID,100,VALID,-0.0339617,VALID,18.7668,VALID,29,VALID,0,
2008-09-05, 01:52:00,VALID,917.888,VALID,0.2,VALID,100,VALID,-0.101885,VALID,18.7803,VALID,29,VALID,0,
2008-09-05, 01:53:00,VALID,917.898,VALID,0.2,VALID,100,VALID,-0.0849042,VALID,18.787,VALID,29,VALID,0,
2008-09-05, 01:54:00,VALID,917.887,VALID,0.2,VALID,100,VALID,-0.0679233,VALID,18.7898,VALID,29,VALID,0,
2008-09-05, 01:55:00,VALID,917.897,VALID,0.4,VALID,100,VALID,-0.0849042,VALID,18.7895,VALID,29,VALID,0,
2008-09-05, 01:56:00,VALID,917.888,VALID,0,VALID,100,VALID,-0.0679233,VALID,18.7863,VALID,29,VALID,0,
2008-09-05, 01:57:00,VALID,917.902,VALID,0.2,VALID,100,VALID,-0.0849042,VALID,18.7895,VALID,29,VALID,0,
2008-09-05, 01:58:00,VALID,917.902,VALID,0.2,VALID,100,VALID,-0.0679233,VALID,18.8065,VALID,30,VALID,0.0872713,
2008-09-05, 01:59:00,VALID,917.873,VALID,0.2,VALID,100,VALID,-0.0509425,VALID,18.7928,VALID,36,VALID,0.832775,
2008-09-05, 02:00:00,VALID,917.877,VALID,0.2,VALID,100,VALID,-0.0339617,VALID,18.799,VALID,39,VALID,0.778201,
2008-09-05, 02:01:00,VALID,917.848,VALID,0.2,VALID,100,VALID,-0.0339617,VALID,18.8025,VALID,45,VALID,0.335366,
2008-09-05, 02:02:00,VALID,917.863,VALID,0.2,VALID,100,VALID,0,VALID,18.7928,VALID,43,VALID,0,
2008-09-05, 02:03:00,VALID,917.85,VALID,0.2,VALID,100,VALID,-0.0169808,VALID,18.7698,VALID,40,VALID,0.743459,
2008-09-05, 02:04:00,VALID,917.853,VALID,0.2,VALID,100,VALID,-0.0169808,VALID,18.7636,VALID,33,VALID,0.649609,
2008-09-05, 02:05:00,VALID,917.853,VALID,0.2,VALID,100,VALID,-0.0169808,VALID,18.7376,VALID,33,VALID,1.39944,
2008-09-05, 02:06:00,VALID,917.835,VALID,0.2,VALID,100,VALID,-0.0509425,VALID,18.673,VALID,28,VALID,1.22425,
2008-09-05, 02:07:00,VALID,917.822,VALID,0.2,VALID,100,VALID,-0.0339617,VALID,18.5982,VALID,24,VALID,1.37351,
2008-09-05, 02:08:00,VALID,917.819,VALID,0.2,VALID,100,VALID,-0.0509425,VALID,18.5396,VALID,36,VALID,1.51925,
2008-09-05, 02:09:00,VALID,917.81,VALID,0.2,VALID,100,VALID,-0.0339617,VALID,18.5301,VALID,33,VALID,1.53066,
2008-09-05, 02:10:00,VALID,917.813,VALID,0,VALID,100,VALID,-0.0169808,VALID,18.5136,VALID,29,VALID,1.49419,
2008-09-05, 02:11:00,VALID,917.787,VALID,0.2,VALID,100,VALID,-0.0509425,VALID,18.4946,VALID,30,VALID,1.48382,
2008-09-05, 02:12:00,VALID,917.776,VALID,0.2,VALID,100,VALID,-0.0679233,VALID,18.4587,VALID,21,VALID,1.19727,
2008-09-05, 02:13:00,VALID,917.77,VALID,0,VALID,100,VALID,-0.0169808,VALID,18.4455,VALID,27,VALID,0.659028,
2008-09-05, 02:14:00,VALID,917.764,VALID,0.2,VALID,100,VALID,0,VALID,18.4392,VALID,28,VALID,1.20059,
2008-09-05, 02:15:00,VALID,917.76,VALID,0,VALID,100,VALID,-0.0679233,VALID,18.4193,VALID,19,VALID,1.17715,
2008-09-05, 02:16:00,VALID,917.756,VALID,0.2,VALID,100,VALID,-0.0509425,VALID,18.4358,VALID,14,VALID,1.07664,
2008-09-05, 02:17:00,VALID,917.755,VALID,0,VALID,100,VALID,-0.0339617,VALID,18.4293,VALID,20,VALID,0.999199,
2008-09-05, 02:18:00,VALID,917.736,VALID,0.2,VALID,100,VALID,-0.0339617,VALID,18.4293,VALID,16,VALID,1.41424,
2008-09-05, 02:19:00,VALID,917.729,VALID,0,VALID,100,VALID,-0.0169808,VALID,18.4293,VALID,13,VALID,1.61301,
2008-09-05, 02:20:00,VALID,917.729,VALID,0.2,VALID,100,VALID,0,VALID,18.4163,VALID,18,VALID,1.31231,
2008-09-05, 02:21:00,VALID,917.725,VALID,0,VALID,100,VALID,0,VALID,18.4096,VALID,16,VALID,1.6849,
2008-09-05, 02:22:00,VALID,917.721,VALID,0.2,VALID,100,VALID,0,VALID,18.3762,VALID,12,VALID,1.23153,
2008-09-05, 02:23:00,VALID,917.729,VALID,0,VALID,100,VALID,-0.0339617,VALID,18.3704,VALID,19,VALID,1.18102,
2008-09-05, 02:24:00,VALID,917.722,VALID,0.2,VALID,100,VALID,-0.0509425,VALID,18.3614,VALID,9,VALID,1.04936,
2008-09-05, 02:25:00,VALID,917.711,VALID,0,VALID,100,VALID,-0.0849042,VALID,18.3387,VALID,360,VALID,1.0349,
2008-09-05, 02:26:00,VALID,917.72,VALID,0.2,VALID,100,VALID,-0.0509425,VALID,18.3093,VALID,8,VALID,0.576637,
2008-09-05, 02:27:00,VALID,917.725,VALID,0,VALID,100,VALID,-0.0679233,VALID,18.3193,VALID,23,VALID,0.809451,
2008-09-05, 02:28:00,VALID,917.72,VALID,0,VALID,100,VALID,-0.0509425,VALID,18.3352,VALID,38,VALID,0.517624,
2008-09-05, 02:29:00,VALID,917.71,VALID,0.2,VALID,100,VALID,-0.0339617,VALID,18.3318,VALID,25,VALID,0.511347,
2008-09-05, 02:30:00,VALID,917.705,VALID,0,VALID,100,VALID,-0.0169808,VALID,18.3447,VALID,15,VALID,0.544643,
2008-09-05, 02:31:00,VALID,917.708,VALID,0.2,VALID,100,VALID,-0.0339617,VALID,18.3315,VALID,4,VALID,0.00816761,
2008-09-05, 02:32:00,VALID,917.702,VALID,0,VALID,100,VALID,-0.0339617,VALID,18.316,VALID,14,VALID,0.628196,
2008-09-05, 02:33:00,VALID,917.694,VALID,0,VALID,100,VALID,-0.0339617,VALID,18.2996,VALID,18,VALID,0.979469,
2008-09-05, 02:34:00,VALID,917.674,VALID,0.2,VALID,100,VALID,-0.0339617,VALID,18.2769,VALID,1,VALID,1.03216,
2008-09-05, 02:35:00,VALID,917.674,VALID,0,VALID,100,VALID,-0.0339617,VALID,18.2607,VALID,14,VALID,1.78853,
2008-09-05, 02:36:00,VALID,917.67,VALID,0,VALID,100,VALID,-0.0339617,VALID,18.2444,VALID,16,VALID,0.734747,
2008-09-05, 02:37:00,VALID,917.66,VALID,0.2,VALID,100,VALID,-0.0339617,VALID,18.2349,VALID,21,VALID,1.07617,
2008-09-05, 02:38:00,VALID,917.654,VALID,0,VALID,100,VALID,-0.0509425,VALID,18.2382,VALID,7,VALID,0.85617,
2008-09-05, 02:39:00,VALID,917.638,VALID,0,VALID,100,VALID,-0.0509425,VALID,18.2157,VALID,18,VALID,0.805432,
2008-09-05, 02:40:00,VALID,917.631,VALID,0.2,VALID,100,VALID,-0.0339617,VALID,18.1889,VALID,25,VALID,0.407552,
2008-09-05, 02:41:00,VALID,917.615,VALID,0,VALID,100,VALID,-0.0509425,VALID,18.1863,VALID,11,VALID,0.52426,
2008-09-05, 02:42:00,VALID,917.605,VALID,0,VALID,100,VALID,-0.0509425,VALID,18.1671,VALID,9,VALID,0.496875,
2008-09-05, 02:43:00,VALID,917.588,VALID,0.2,VALID,100,VALID,-0.0339617,VALID,18.1564,VALID,356,VALID,0.448946,
2008-09-05, 02:44:00,VALID,917.583,VALID,0,VALID,100,VALID,-0.0679233,VALID,18.1668,VALID,3,VALID,0.732227,
2008-09-05, 02:45:00,VALID,917.571,VALID,0,VALID,100,VALID,-0.0339617,VALID,18.1729,VALID,354,VALID,1.01367,
2008-09-05, 02:46:00,VALID,917.555,VALID,0,VALID,100,VALID,-0.0169808,VALID,18.2023,VALID,352,VALID,0.691761,
2008-09-05, 02:47:00,VALID,917.553,VALID,0.2,VALID,100,VALID,-0.0509425,VALID,18.2185,VALID,358,VALID,0.718205,
2008-09-05, 02:48:00,VALID,917.526,VALID,0,VALID,100,VALID,-0.0339617,VALID,18.2248,VALID,360,VALID,0.375744,
2008-09-05, 02:49:00,VALID,917.533,VALID,0,VALID,100,VALID,-0.0339617,VALID,18.2447,VALID,355,VALID,0.467842,
2008-09-05, 02:50:00,VALID,917.512,VALID,0,VALID,100,VALID,-0.0339617,VALID,18.2544,VALID,358,VALID,0.160511,
2008-09-05, 02:51:00,VALID,917.508,VALID,0.2,VALID,100,VALID,0,VALID,18.2569,VALID,13,VALID,0.469141,
2008-09-05, 02:52:00,VALID,917.503,VALID,0,VALID,100,VALID,0.0169808,VALID,18.2637,VALID,360,VALID,0.894436,
2008-09-05, 02:53:00,VALID,917.505,VALID,0,VALID,100,VALID,-0.0169808,VALID,18.2535,VALID,14,VALID,0.835392,
2008-09-05, 02:54:00,VALID,917.489,VALID,0,VALID,100,VALID,0,VALID,18.2667,VALID,16,VALID,0.903516,
2008-09-05, 02:55:00,VALID,917.479,VALID,0.2,VALID,100,VALID,-0.0509425,VALID,18.2739,VALID,355,VALID,0.959821,
2008-09-05, 02:56:00,VALID,917.463,VALID,0,VALID,100,VALID,0,VALID,18.263,VALID,19,VALID,0.87391,
2008-09-05, 02:57:00,VALID,917.444,VALID,0,VALID,100,VALID,-0.0169808,VALID,18.2803,VALID,41,VALID,0.900152,
2008-09-05, 02:58:00,VALID,917.423,VALID,0,VALID,100,VALID,-0.0169808,VALID,18.2864,VALID,10,VALID,0.834794,
2008-09-05, 02:59:00,VALID,917.416,VALID,0.2,VALID,100,VALID,0,VALID,18.2695,VALID,14,VALID,0.676953,
2008-09-05, 03:00:00,VALID,917.39,VALID,0,VALID,100,VALID,-0.0169808,VALID,18.2701,VALID,18,VALID,1.16139,
2008-09-05, 03:01:00,VALID,917.374,VALID,0,VALID,100,VALID,-0.0169808,VALID,18.2701,VALID,2,VALID,0.806944,
2008-09-05, 03:02:00,VALID,917.355,VALID,0,VALID,100,VALID,0,VALID,18.2836,VALID,348,VALID,0.797852,
2008-09-05, 03:03:00,VALID,917.325,VALID,0,VALID,100,VALID,0,VALID,18.2739,VALID,357,VALID,0.875558,
2008-09-05, 03:04:00,VALID,917.328,VALID,0,VALID,100,VALID,-0.0169808,VALID,18.2565,VALID,3,VALID,1.10212,
2008-09-05, 03:05:00,VALID,917.312,VALID,0.2,VALID,100,VALID,-0.0169808,VALID,18.2699,VALID,346,VALID,1.20803,
2008-09-05, 03:06:00,VALID,917.296,VALID,0,VALID,100,VALID,-0.0169808,VALID,18.26,VALID,9,VALID,1.01488,
2008-09-05, 03:07:00,VALID,917.283,VALID,0,VALID,100,VALID,0.0169808,VALID,18.2572,VALID,29,VALID,1.39937,
2008-09-05, 03:08:00,VALID,917.27,VALID,0,VALID,100,VALID,0.0169808,VALID,18.2572,VALID,32,VALID,1.31696,
2008-09-05, 03:09:00,VALID,917.268,VALID,0,VALID,100,VALID,-0.0509425,VALID,18.2639,VALID,24,VALID,1.35458,
2008-09-05, 03:10:00,VALID,917.245,VALID,0,VALID,100,VALID,-0.0169808,VALID,18.2444,VALID,9,VALID,1.23793,
2008-09-05, 03:11:00,VALID,917.246,VALID,0,VALID,100,VALID,0,VALID,18.2312,VALID,24,VALID,1.05323,
2008-09-05, 03:12:00,VALID,917.244,VALID,0,VALID,100,VALID,0.0339617,VALID,18.218,VALID,8,VALID,1,
2008-09-05, 03:13:00,VALID,917.238,VALID,0,VALID,100,VALID,0.0339617,VALID,18.2083,VALID,4,VALID,0.504542,
2008-09-05, 03:14:00,VALID,917.237,VALID,0,VALID,100,VALID,0,VALID,18.2083,VALID,359,VALID,0,
2008-09-05, 03:15:00,VALID,917.233,VALID,0.2,VALID,100,VALID,0,VALID,18.2051,VALID,32,VALID,0.878806,
2008-09-05, 03:16:00,VALID,917.219,VALID,0,VALID,100,VALID,0,VALID,18.2021,VALID,9,VALID,0.789063,
2008-09-05, 03:17:00,VALID,917.241,VALID,0,VALID,100,VALID,0,VALID,18.1824,VALID,18,VALID,1.16124,
2008-09-05, 03:18:00,VALID,917.231,VALID,0,VALID,100,VALID,-0.0169808,VALID,18.1733,VALID,21,VALID,1.1774,
2008-09-05, 03:19:00,VALID,917.221,VALID,0,VALID,100,VALID,0,VALID,18.1601,VALID,20,VALID,1.29576,
2008-09-05, 03:20:00,VALID,917.192,VALID,0,VALID,100,VALID,0,VALID,18.1497,VALID,22,VALID,1.45938,
2008-09-05, 03:21:00,VALID,917.187,VALID,0,VALID,100,VALID,0.0169808,VALID,18.14,VALID,39,VALID,1.71348,
2008-09-05, 03:22:00,VALID,917.181,VALID,0,VALID,100,VALID,0.0169808,VALID,18.1365,VALID,39,VALID,1.22885,
2008-09-05, 03:23:00,VALID,917.174,VALID,0,VALID,100,VALID,0,VALID,18.1409,VALID,35,VALID,1.129,
2008-09-05, 03:24:00,VALID,917.177,VALID,0,VALID,100,VALID,0,VALID,18.1377,VALID,29,VALID,0.618521,
2008-09-05, 03:25:00,VALID,917.156,VALID,0,VALID,100,VALID,-0.0169808,VALID,18.121,VALID,12,VALID,0.791211,
2008-09-05, 03:26:00,VALID,917.154,VALID,0,VALID,100,VALID,0,VALID,18.1048,VALID,34,VALID,1.27148,
2008-09-05, 03:27:00,VALID,917.16,VALID,0,VALID,100,VALID,-0.0169808,VALID,18.118,VALID,20,VALID,0.865234,
2008-09-05, 03:28:00,VALID,917.15,VALID,0,VALID,100,VALID,0,VALID,18.1113,VALID,19,VALID,1.1746,
2008-09-05, 03:29:00,VALID,917.142,VALID,0,VALID,100,VALID,-0.0169808,VALID,18.118,VALID,23,VALID,0.836648,
2008-09-05, 03:30:00,VALID,917.15,VALID,0.2,VALID,100,VALID,-0.0169808,VALID,18.1048,VALID,19,VALID,0.678163,
2008-09-05, 03:31:00,VALID,917.141,VALID,0,VALID,100,VALID,0,VALID,18.1018,VALID,17,VALID,0.954545,
2008-09-05, 03:32:00,VALID,917.136,VALID,0,VALID,100,VALID,0,VALID,18.095,VALID,16,VALID,0.428499,
2008-09-05, 03:33:00,VALID,917.139,VALID,0,VALID,100,VALID,0,VALID,18.0888,VALID,346,VALID,0.574805,
2008-09-05, 03:34:00,VALID,917.129,VALID,0,VALID,100,VALID,-0.0169808,VALID,18.0788,VALID,345,VALID,0,
2008-09-05, 03:35:00,VALID,917.12,VALID,0,VALID,100,VALID,-0.0169808,VALID,18.0691,VALID,7,VALID,0,
2008-09-05, 03:36:00,VALID,917.11,VALID,0,VALID,100,VALID,0,VALID,18.0726,VALID,7,VALID,0,
2008-09-05, 03:37:00,VALID,917.137,VALID,0,VALID,100,VALID,-0.0169808,VALID,18.0696,VALID,7,VALID,0,
2008-09-05, 03:38:00,VALID,917.133,VALID,0,VALID,100,VALID,-0.0169808,VALID,18.0758,VALID,7,VALID,0,
2008-09-05, 03:39:00,VALID,917.123,VALID,0,VALID,100,VALID,-0.0339617,VALID,18.0626,VALID,7,VALID,0,
2008-09-05, 03:40:00,VALID,917.133,VALID,0,VALID,100,VALID,0,VALID,18.0624,VALID,7,VALID,0,
2008-09-05, 03:41:00,VALID,917.143,VALID,0,VALID,100,VALID,-0.0339617,VALID,18.0661,VALID,7,VALID,0,
2008-09-05, 03:42:00,VALID,917.154,VALID,0,VALID,100,VALID,-0.0339617,VALID,18.0696,VALID,7,VALID,0,
2008-09-05, 03:43:00,VALID,917.163,VALID,0,VALID,100,VALID,0,VALID,18.0659,VALID,7,VALID,0,
2008-09-05, 03:44:00,VALID,917.159,VALID,0,VALID,100,VALID,0,VALID,18.0628,VALID,7,VALID,0,
2008-09-05, 03:45:00,VALID,917.161,VALID,0,VALID,100,VALID,-0.0169808,VALID,18.0561,VALID,7,VALID,0,
2008-09-05, 03:46:00,VALID,917.169,VALID,0,VALID,100,VALID,0,VALID,18.0466,VALID,7,VALID,0,